Tracking 19564 objects as of 20-Mar-2019
HD Live streaming from Space Station
objects crossing your sky now

FENGYUN 1C DEB

Track FENGYUN 1C DEB now!
10-day predictions


NORAD ID: 31710
Int'l Code: 1999-025CDH
Perigee: 476.1 km
Apogee: 605.4 km
Inclination: 99.0 °
Period: 95.3 minutes
Semi major axis: 6911 km
RCS: 0.0102 m2 (small)
Launch date: May 10, 1999
Source: People's Republic of China (PRC)
Launch site: Taiyaun Space Center, China (TSC)

Note: This is SATELLITE DEBRIS
aabbcc
Your satellite tracking list
Your tracking list is empty




NASA's NSSDC Master Catalog

Two Line Element Set (TLE):
1 31710U 99025CDH 19076.33559889  .00003748  00000-0  20820-3 0  9997
2 31710  99.0008 279.8635 0093577  51.2675 309.6869 15.10841610638406
Source of the keplerian elements: AFSPC